Wind_Speed
27 26 26 26 25 25 24 24 23 22 22 21 21 20 19 19 18 18 18 17 16 16 15 14 13 13 12 11 11 10 9 8 8 7 7 8 8 9 10 10 11 12 12 12 12 12 12 12 13 13 14 14 15 16 16 17 17 18 18 19 19 19 19 19 20 21 21 22 21 20 19 15 13 15 14 14 13 11 11 11 10 9 10 10 9 9 9 9
28 28 27 26 26 25 25 24 24 24 23 23 22 22 21 21 20 20 19 19 18 18 17 17 16 15 14 13 12 12 11 10 10 9 9 10 10 11 11 12 13 13 14 14 14 14 14 14 15 15 16 16 17 17 18 19 19 19 20 20 20 20 21 21 22 23 23 23 21 19 18 15 13 13 13 14 14 12 12 13 11 9 9 10 10 10 10 10
30 29 28 27 27 26 26 25 25 25 24 24 24 23 23 22 22 21 21 21 20 20 19 19 18 17 16 15 14 14 14 13 12 12 12 12 12 12 13 13 14 15 15 15 16 16 16 16 16 17 17 17 18 19 19 20 20 21 21 21 21 22 22 23 23 24 23 22 20 18 16 14 13 12 12 14 14 13 14 16 13 10 9 10 10 11 11 11
32 31 30 29 28 28 27 27 26 26 26 25 25 25 24 24 23 23 23 23 22 22 21 20 19 19 18 17 16 16 16 15 14 14 14 14 14 14 15 15 16 16 17 17 17 17 17 17 17 18 18 18 19 20 21 21 22 22 22 23 23 23 23 22 22 22 22 20 18 16 15 14 12 12 12 15 16 15 16 17 16 12 11 11 11 11 12 12
33 32 31 31 30 29 29 28 28 27 27 27 27 26 26 25 25 25 24 24 24 23 23 22 21 20 20 19 18 18 18 17 16 16 16 16 16 16 16 17 17 18 18 18 18 18 18 18 19 19 19 20 20 21 22 23 23 23 23 22 22 21 21 20 20 20 19 18 16 15 14 13 12 12 13 15 16 17 18 19 17 16 14 13 12 12 12 12
34 34 33 32 32 31 31 30 30 29 29 28 28 28 27 27 27 26 26 26 25 25 24 24 23 22 22 21 20 20 20 20 18 18 19 19 18 18 18 19 19 19 19 20 20 20 20 20 20 20 21 21 22 23 24 24 23 23 22 21 21 20 19 19 19 18 18 16 15 15 15 14 13 13 15 16 16 18 20 19 18 18 17 16 15 14 13 12
36 36 35 34 34 33 32 32 32 31 31 30 30 30 29 29 28 28 28 28 27 27 26 25 25 24 23 23 22 22 23 23 20 20 21 21 21 20 20 20 21 21 21 21 21 21 21 21 21 22 22 23 24 24 24 24 23 22 21 21 21 21 20 20 19 18 18 17 16 16 16 16 15 16 17 18 18 19 20 19 19 19 19 19 18 17 15 14
38 37 37 36 36 35 34 34 33 33 33 32 32 32 31 31 30 30 30 30 29 29 28 27 27 26 25 25 24 24 25 25 23 22 23 23 23 22 22 22 22 22 22 23 23 23 23 23 23 24 24 25 25 25 25 24 23 22 22 22 23 23 22 21 20 19 19 18 17 17 18 17 18 19 20 20 20 20 19 19 20 20 20 20 19 18 18 17
40 39 38 38 37 37 36 36 35 35 35 34 34 34 33 33 33 32 32 32 31 31 30 29 29 28 27 27 26 26 27 27 26 25 25 26 26 25 24 24 24 24 24 24 24 24 24 25 25 25 26 26 27 26 25 24 24 23 23 24 25 24 24 23 22 21 21 20 19 19 20 20 21 22 22 23 22 20 20 20 20 21 21 20 20 20 19 19
42 41 40 40 39 38 38 37 37 37 37 36 36 36 35 35 35 34 34 33 33 32 32 31 31 30 29 28 28 28 29 30 28 28 27 27 27 27 26 26 26 26 26 26 26 26 26 27 27 28 28 28 28 27 26 25 25 25 25 25 26 25 25 24 24 24 23 22 21 21 22 23 24 24 24 24 23 22 21 21 21 21 21 21 21 21 21 20
43 42 42 41 41 40 39 39 39 38 38 38 38 37 37 37 36 36 36 35 35 34 34 33 32 32 31 30 29 30 31 32 30 30 29 29 29 28 28 27 27 27 27 27 28 28 28 29 29 30 30 29 29 28 27 26 26 26 26 26 26 26 26 26 26 26 24 23 22 23 24 25 26 25 25 25 24 23 23 22 22 22 22 21 21 21 21 21
44 43 43 43 42 41 41 40 40 40 39 39 39 39 39 38 38 38 37 37 36 36 35 35 34 34 33 33 32 32 33 33 32 32 31 31 30 29 28 28 28 29 29 29 30 30 31 31 31 32 31 30 29 28 27 27 27 27 27 27 26 26 26 26 27 27 25 24 24 24 25 26 26 26 26 25 25 25 25 24 23 23 22 22 21 21 21 21
45 45 44 44 43 43 43 42 41 41 41 40 40 40 40 40 39 39 39 38 38 37 37 37 36 36 36 35 34 34 34 34 34 33 32 32 31 30 29 29 30 30 31 31 32 32 33 33 33 33 32 30 29 29 29 28 29 28 28 28 27 27 27 27 27 27 26 25 25 25 26 25 26 27 27 27 27 26 26 25 24 23 23 22 22 22 21 21
46 46 46 45 45 44 44 43 43 43 42 42 41 41 41 41 41 40 40 40 40 39 39 39 38 38 38 37 36 36 36 36 35 34 34 33 32 31 31 31 32 33 33 34 34 35 35 35 34 33 32 31 30 30 30 30 30 29 29 28 27 27 27 27 27 26 26 27 26 27 27 26 27 28 28 28 27 27 26 25 24 23 23 23 23 23 23 22
47 47 47 47 46 46 46 45 45 44 44 43 43 43 43 42 42 42 42 42 41 41 41 41 41 41 40 39 37 37 37 37 36 36 35 34 34 34 34 35 35 35 36 36 36 36 36 35 35 33 32 32 31 32 31 31 30 29 29 28 26 26 26 26 27 26 28 28 28 29 28 27 28 29 29 28 27 27 26 26 25 24 24 24 24 24 24 23
49 48 48 48 48 47 47 47 47 46 46 45 45 44 44 44 44 44 44 44 43 43 43 43 42 42 42 40 38 38 37 38 38 38 37 37 37 37 37 37 37 37 37 37 37 37 36 36 35 34 33 33 32 32 32 31 30 30 30 28 25 25 25 26 27 28 29 30 30 30 30 28 28 29 29 28 27 27 27 27 26 25 25 25 24 25 25 24
50 50 49 49 49 48 48 48 48 48 47 47 47 46 46 46 46 46 46 45 45 45 45 44 43 43 43 41 39 38 39 39 39 39 39 39 38 38 38 38 38 38 37 37 37 37 37 37 36 35 34 33 32 31 32 31 30 30 29 27 25 25 26 26 28 30 31 32 32 31 30 29 28 29 29 28 27 27 28 28 27 26 26 26 26 25 25 25
50 51 51 50 50 50 49 49 49 49 49 48 48 48 47 47 47 47 47 47 46 46 45 44 43 44 44 42 40 40 40 40 40 40 40 40 40 39 39 39 39 39 38 38 38 38 38 38 37 36 34 32 30 31 32 31 30 30 29 28 28 27 27 27 29 31 32 32 32 30 29 28 29 29 28 27 28 29 29 29 28 27 27 27 27 26 25 25
51 51 51 51 51 51 51 51 51 51 50 50 49 49 49 49 49 48 47 47 46 45 45 45 45 46 45 43 43 42 41 41 41 41 41 41 41 41 41 41 40 40 40 40 40 39 39 39 38 35 32 31 31 32 32 31 31 31 30 30 30 29 27 26 29 32 32 32 31 29 29 28 29 29 28 28 29 29 29 29 29 28 28 27 27 26 26 25
51 51 51 51 51 51 51 52 52 52 52 51 51 51 51 51 50 50 49 48 47 47 48 48 47 48 48 46 45 44 43 43 43 43 43 43 43 43 43 43 42 42 41 41 41 40 38 38 35 31 30 32 33 33 33 33 32 32 32 32 31 29 27 26 30 32 33 34 31 30 30 29 29 30 29 28 28 29 29 29 29 28 27 27 26 26 26 26
52 52 52 52 52 52 52 52 52 52 52 53 53 53 52 52 52 52 51 51 50 50 50 50 50 49 49 48 46 45 44 44 44 44 44 43 44 44 44 43 43 42 41 40 40 38 37 36 31 29 32 34 34 34 34 34 33 33 32 32 32 30 28 28 31 32 33 35 32 31 31 30 30 29 28 28 27 27 28 28 28 28 27 27 27 27 27 27
54 54 53 53 53 52 52 52 53 53 53 53 53 53 52 52 52 53 53 53 52 51 51 51 50 49 48 47 46 44 44 43 43 43 42 42 43 43 42 42 41 40 39 39 38 37 37 35 31 33 36 36 35 35 35 34 34 33 33 33 32 30 31 32 32 33 34 34 33 33 32 31 30 29 28 28 27 27 28 28 29 29 28 29 29 29 29 29
55 55 55 55 54 54 53 53 53 53 53 53 53 53 53 53 53 53 53 54 52 51 51 50 49 49 48 47 45 44 44 43 43 42 42 42 41 40 40 39 39 39 38 38 37 38 39 37 35 37 37 36 36 36 36 35 34 34 34 35 33 32 33 35 34 33 34 34 34 33 33 31 31 30 29 29 29 29 30 30 30 30 30 29 29 29 29 29
55 55 56 55 56 56 55 55 54 53 53 53 53 54 54 54 53 53 54 55 54 51 50 51 50 49 48 47 46 45 45 43 43 42 41 41 40 40 39 38 39 40 39 38 39 41 41 39 38 38 37 37 37 36 36 36 36 35 35 35 34 34 35 36 35 34 35 35 34 34 35 32 30 31 31 30 31 31 31 31 30 30 29 29 28 28 28 28
57 57 57 56 57 57 57 57 56 55 55 54 55 56 55 55 55 55 55 57 56 52 50 50 50 49 47 47 47 46 46 44 43 42 41 41 40 40 40 40 41 42 40 40 41 43 42 40 39 38 37 38 38 38 37 37 38 38 37 35 36 36 36 36 36 36 36 35 34 35 36 33 30 32 32 31 32 32 32 31 30 30 29 28 28 28 29 29
58 58 58 58 58 58 59 58 57 58 58 56 57 58 58 56 56 56 56 58 58 53 50 50 50 49 48 48 47 46 47 45 43 42 42 41 40 40 41 42 42 42 41 41 43 43 40 38 38 38 38 38 39 38 36 37 40 40 37 36 37 37 36 37 37 38 38 37 35 35 37 36 33 32 32 33 33 32 32 31 31 30 29 29 29 30 30 31
57 57 58 58 59 59 60 59 59 59 60 60 61 61 60 59 59 58 57 61 61 54 52 52 51 51 49 49 48 48 49 46 42 42 42 41 41 41 42 42 42 41 41 42 43 42 39 38 39 39 39 39 39 37 36 38 41 41 38 37 38 37 37 38 38 39 39 39 38 36 36 37 36 33 33 33 33 33 32 31 31 30 30 30 30 31 32 32
55 55 55 56 57 58 59 59 60 61 62 64 65 65 64 62 62 61 59 63 62 56 55 54 52 51 51 51 50 50 50 47 44 43 42 42 42 43 43 43 42 41 41 43 44 42 40 41 41 40 41 41 39 39 39 41 43 42 41 40 39 39 40 40 40 41 41 41 40 37 36 39 38 35 34 34 33 32 32 31 31 31 31 31 32 33 33 34
55 56 55 55 55 56 56 57 57 59 64 67 66 66 67 66 65 63 63 66 63 59 59 57 54 53 53 52 52 50 49 48 47 46 44 44 45 45 45 44 44 44 44 45 45 44 43 43 42 43 43 42 42 42 43 44 46 46 45 44 43 42 43 43 43 43 43 43 42 38 37 40 41 38 35 35 34 33 32 32 31 31 32 32 33 35 36 36
56 57 57 56 55 54 55 55 53 54 59 64 65 64 65 68 67 66 68 68 64 63 64 62 59 56 55 54 53 52 50 49 49 48 47 47 46 46 46 46 47 48 47 47 47 47 46 45 45 46 45 44 44 45 45 46 47 47 47 47 46 46 46 45 45 44 45 45 41 38 37 40 43 41 37 35 34 33 32 32 32 32 32 33 34 36 36 36
54 55 58 58 56 54 54 54 52 51 54 59 62 63 64 65 66 69 71 68 66 68 68 66 64 61 59 57 55 53 52 52 51 50 50 49 48 48 47 47 48 49 50 50 49 48 47 48 48 48 47 47 47 47 47 47 47 47 47 47 47 47 47 47 46 44 45 43 39 37 38 40 43 42 39 37 35 33 33 32 32 32 33 34 35 36 36 36
53 50 52 55 55 55 54 54 54 54 55 58 61 64 64 64 67 70 69 66 68 71 69 67 68 66 64 62 58 56 54 55 54 52 52 51 50 50 48 48 48 49 52 52 50 49 50 50 50 50 50 49 48 48 47 47 46 46 46 45 45 46 47 47 46 44 42 41 38 37 38 40 41 39 39 38 36 34 33 33 32 33 33 35 36 36 36 36
56 48 45 50 53 52 53 54 56 57 58 60 62 64 65 68 68 64 62 65 69 69 68 69 70 69 67 65 62 59 56 55 54 53 52 52 52 52 51 51 51 51 52 52 51 51 52 53 53 52 52 50 49 49 48 47 46 46 45 45 45 46 47 46 43 41 39 38 37 38 39 40 39 36 36 36 36 36 35 35 35 35 35 36 36 37 37 38
57 49 42 45 51 51 52 54 56 57 57 59 62 62 66 70 64 59 61 65 66 67 67 69 71 70 69 67 65 62 59 57 56 55 54 54 54 54 53 53 52 51 52 52 53 54 55 56 54 53 52 52 51 50 49 48 48 47 45 44 45 45 43 42 40 39 39 38 38 39 39 39 37 34 34 35 36 37 37 38 38 38 38 38 38 39 40 41
58 53 45 46 50 50 52 54 56 56 56 58 61 63 66 65 59 58 60 61 63 66 66 67 70 70 69 67 65 63 62 60 59 58 58 58 58 57 55 55 53 52 51 52 53 54 55 56 54 53 53 52 51 49 48 47 47 45 43 43 42 39 38 38 39 39 39 39 39 39 39 37 36 35 35 36 37 38 38 39 39 40 40 40 40 41 42 43
58 57 54 52 51 48 49 53 56 58 58 60 64 66 64 61 60 60 57 56 59 62 64 67 68 68 67 65 64 63 62 61 60 59 59 58 58 57 56 55 54 53 52 51 52 53 54 55 53 52 51 49 48 46 44 44 43 41 41 40 37 35 36 38 39 39 40 41 41 39 38 37 37 37 37 38 38 38 39 40 41 42 42 42 42 43 44 45
55 55 56 55 51 49 50 52 55 58 59 61 66 66 59 56 58 58 57 56 57 59 63 66 65 63 65 64 63 63 63 62 60 58 56 55 54 53 51 50 49 49 48 47 49 50 51 51 50 48 46 44 42 41 41 41 40 40 39 36 35 36 38 38 40 40 41 43 42 40 39 39 38 39 39 39 40 41 42 43 43 43 43 43 44 44 45 46
52 52 54 54 51 50 51 54 56 58 60 63 66 63 57 55 54 54 56 57 56 58 61 61 59 58 60 61 60 61 62 62 60 57 54 52 50 47 45 45 45 45 44 44 46 47 47 47 46 44 43 41 40 40 40 40 39 38 37 36 37 38 39 39 40 42 43 44 44 42 42 41 40 40 40 41 42 43 44 45 45 44 44 44 44 45 46 47
53 52 54 53 51 52 53 56 58 60 62 64 64 60 57 56 54 52 54 54 55 58 58 56 55 55 56 56 56 58 59 58 56 54 52 49 47 44 43 43 44 43 43 43 44 45 44 45 45 43 42 41 41 41 41 39 37 37 37 38 39 40 41 41 42 43 44 46 46 45 44 43 42 42 42 43 45 45 46 46 45 44 44 45 45 46 46 46
57 57 55 52 52 54 56 58 58 59 61 60 60 59 57 57 55 54 54 52 54 57 57 55 55 54 53 53 53 54 55 54 52 51 50 47 46 43 43 43 43 43 42 42 44 44 44 44 44 43 42 42 41 40 37 36 36 38 39 40 41 42 43 44 45 46 47 48 48 47 47 46 45 45 45 46 47 47 47 46 45 45 45 45 46 46 45 45
59 60 58 55 54 54 56 59 58 58 59 57 54 55 58 59 57 56 56 54 53 54 54 53 53 53 52 51 51 51 51 51 50 50 49 47 45 43 42 42 42 41 41 42 43 43 43 42 42 42 42 41 38 36 36 38 39 40 41 42 43 44 45 47 49 48 48 48 48 49 50 50 49 49 48 48 49 49 48 47 46 46 46 47 47 46 45 45
59 60 60 58 57 55 55 58 57 57 59 57 53 52 55 57 57 58 58 56 54 54 54 53 52 52 52 52 52 51 51 52 52 51 51 49 46 44 42 42 41 41 41 43 43 42 42 42 42 43 42 41 40 40 41 42 42 44 45 44 44 46 48 49 50 49 48 49 49 51 52 52 50 51 51 51 51 51 49 48 48 48 49 49 47 46 47 48
57 57 56 56 58 56 54 56 57 57 55 54 55 56 56 55 56 58 59 58 58 57 57 56 55 54 54 54 54 54 54 54 54 53 53 51 50 47 45 44 43 43 44 45 44 44 45 46 46 46 45 45 46 46 47 48 48 48 45 43 45 47 48 49 49 49 50 50 51 53 53 52 51 52 53 53 53 53 52 50 50 51 51 49 49 50 52 53
61 57 53 53 56 57 57 57 57 56 53 51 54 56 57 59 59 58 58 59 60 60 60 60 58 57 56 55 55 55 55 55 55 55 54 54 53 50 49 48 46 46 47 47 46 46 47 48 48 48 49 49 51 51 52 53 50 45 42 44 46 46 47 48 48 49 50 50 51 53 52 52 52 54 55 55 53 53 52 51 52 52 51 51 53 56 57 57
67 65 60 56 56 59 61 61 59 57 53 51 51 51 52 56 58 59 60 59 59 59 60 60 60 58 58 57 56 56 56 56 55 56 57 57 56 54 52 51 50 50 50 50 49 49 49 50 51 53 53 54 55 54 52 48 44 43 44 45 45 46 47 48 49 51 51 50 51 52 53 54 55 56 57 56 54 52 51 51 51 51 52 55 57 59 59 60
68 69 67 61 58 60 62 62 61 60 57 54 51 50 50 50 51 55 58 59 59 59 59 60 60 60 60 59 59 58 57 56 56 56 57 58 58 57 55 54 53 53 53 52 52 52 53 54 55 57 57 56 57 55 52 48 47 49 50 48 48 48 49 49 51 51 50 51 52 52 56 58 57 57 58 55 52 51 50 51 51 53 56 58 59 60 61 62
67 69 69 64 61 62 65 63 61 61 60 58 56 53 52 50 50 52 54 55 57 58 59 60 61 61 61 60 60 60 58 57 57 56 56 56 57 57 57 57 57 56 55 55 55 55 56 58 59 59 59 58 58 58 57 55 54 53 53 53 51 50 51 52 52 50 52 56 55 53 58 60 56 57 56 51 50 50 50 52 54 56 58 58 59 60 62 63
67 68 68 67 64 63 66 66 64 61 60 59 59 57 55 54 53 54 55 55 55 56 57 59 60 60 60 59 59 59 58 58 58 57 57 56 56 56 56 57 57 57 57 58 58 58 59 59 59 60 61 60 58 59 59 58 57 57 56 55 52 52 53 53 53 54 57 60 58 57 60 58 53 52 52 48 48 49 51 53 55 55 56 58 60 62 64 66
67 66 66 67 66 63 63 64 65 63 60 58 58 58 56 55 55 55 55 54 55 55 57 58 57 57 58 59 60 60 59 59 59 59 58 56 55 53 53 53 54 56 57 58 57 57 57 56 57 60 63 62 60 59 59 60 60 59 56 52 51 53 56 56 57 58 60 61 59 57 56 54 51 50 49 47 47 50 52 54 55 57 59 62 64 67 69 71
67 66 65 65 66 64 61 61 62 61 59 57 57 56 54 53 53 54 53 53 53 54 55 56 56 56 57 57 58 60 60 60 60 58 57 57 56 54 53 53 53 53 54 54 55 56 57 58 59 61 62 62 61 61 60 59 59 57 54 51 53 58 60 60 59 58 58 58 55 52 53 53 51 50 49 50 53 55 57 58 59 61 63 65 68 69 70 70
66 66 65 65 65 64 63 61 61 61 59 58 58 57 55 54 52 52 53 53 53 53 54 54 53 53 54 55 55 56 56 57 58 57 56 56 56 56 55 55 53 52 53 54 55 56 58 60 60 59 59 59 58 58 58 58 59 59 55 54 59 62 62 59 57 56 56 54 51 52 54 52 50 50 53 55 58 58 59 60 61 63 65 66 67 67 66 66
65 65 64 63 64 64 62 62 63 64 61 58 57 58 58 57 56 55 56 55 53 53 54 54 53 52 53 54 55 56 56 57 58 59 58 58 57 56 55 54 52 52 53 53 53 54 55 57 57 57 57 57 57 58 58 58 61 62 57 57 61 61 58 56 56 55 53 51 51 54 54 52 51 54 56 57 58 59 60 61 63 65 65 65 64 63 64 64
Wind_Direction
202 203 204 205 206 207 208 208 210 211 213 215 216 217 218 220 222 224 225 226 227 228 229 230 230 232 235 240 244 248 252 256 262 268 273 274 272 271 268 265 263 261 259 258 257 258 259 261 263 265 268 271 275 278 280 282 284 286 288 289 291 293 294 296 297 299 300 301 303 304 304 300 289 286 290 293 299 315 322 318 320 321 315 313 314 313 310 307
206 207 209 210 210 211 212 213 214 214 216 218 219 220 222 223 226 228 230 232 233 234 235 236 236 237 239 243 247 251 254 257 262 267 270 272 273 271 269 267 265 263 262 260 260 261 262 264 266 268 270 274 276 279 281 283 284 286 287 288 290 291 292 294 295 296 297 299 300 300 298 292 282 279 283 289 296 308 311 308 315 319 309 306 308 307 304 302
209 210 211 213 214 215 216 217 217 218 219 220 222 223 225 227 229 232 234 236 237 238 239 240 240 241 242 244 248 252 255 258 262 266 270 272 272 271 269 268 266 264 263 262 262 263 264 265 267 270 272 275 278 280 281 283 284 286 287 288 290 290 291 293 293 294 295 297 297 295 291 285 279 278 279 284 291 300 302 303 310 312 300 297 298 298 296 293
212 213 214 215 216 218 219 220 221 222 223 224 225 227 228 230 232 234 237 239 240 242 242 243 243 244 245 247 249 253 256 259 262 267 271 272 273 272 269 267 266 265 264 264 264 265 266 267 269 272 274 276 278 280 282 284 285 286 287 288 289 290 290 292 292 293 294 294 293 288 283 277 276 276 276 281 288 295 298 302 306 303 294 288 286 287 287 286
216 217 217 218 219 220 221 223 224 225 226 227 229 230 232 233 235 237 239 241 242 243 244 245 245 246 247 249 251 254 258 260 263 267 271 273 274 274 271 268 265 264 264 264 265 266 267 269 271 273 275 278 280 283 285 286 286 287 287 288 288 288 290 291 291 292 292 291 288 281 275 273 273 272 272 277 285 291 295 299 301 298 292 288 285 281 279 280
220 220 221 222 222 223 224 225 226 227 229 230 231 233 234 235 237 239 240 242 243 244 245 246 247 248 250 251 253 256 259 262 265 269 271 273 275 275 273 270 267 265 264 264 265 266 267 269 271 274 276 280 283 286 288 287 287 287 286 287 287 287 288 289 290 290 289 287 282 275 272 273 272 270 271 276 282 288 292 295 295 294 293 293 291 287 282 278
222 223 224 224 225 226 227 228 228 229 230 231 233 234 236 237 238 240 241 243 244 245 246 247 248 249 251 253 255 258 260 263 266 269 271 273 275 275 273 270 268 266 265 265 265 266 268 269 272 275 278 282 285 287 287 286 286 285 285 286 286 286 286 286 286 286 284 281 276 273 272 274 273 272 274 278 282 285 289 291 290 290 292 294 294 292 288 283
225 225 226 227 227 228 229 230 231 231 232 233 234 235 237 238 239 240 242 243 244 246 247 248 248 250 252 254 256 259 262 264 266 269 272 275 275 274 273 271 268 266 266 265 266 267 268 270 272 275 279 282 285 286 285 284 283 283 284 285 285 285 285 283 282 280 278 275 272 271 273 275 275 275 278 281 283 284 285 286 286 288 291 292 292 292 290 286
227 227 228 228 229 230 230 231 232 233 234 235 236 237 238 239 240 241 242 244 245 246 247 249 250 251 252 255 257 260 263 266 268 269 272 274 275 274 273 270 268 267 266 266 267 268 269 271 274 277 280 283 285 284 283 282 281 282 283 284 284 284 283 281 279 276 273 271 270 271 273 275 276 278 281 283 284 285 285 285 286 288 289 290 290 290 288 285
229 229 230 230 231 231 232 233 233 234 235 236 237 238 239 240 241 242 243 244 246 247 248 249 251 252 253 255 258 262 265 267 269 271 271 272 273 274 272 270 268 266 266 266 267 268 270 272 275 278 281 283 284 283 282 280 280 281 282 283 283 283 282 280 277 274 271 269 270 271 274 276 277 280 282 283 284 285 285 285 286 287 287 288 287 286 285 283
231 231 231 232 232 233 234 234 235 235 236 237 238 239 240 241 242 243 244 245 246 248 249 250 252 253 254 256 259 263 265 267 270 271 271 272 272 272 270 268 267 266 266 266 267 269 271 273 276 279 281 282 282 281 280 280 279 280 281 281 282 281 280 279 277 274 272 271 272 273 275 277 278 280 281 282 284 285 285 284 284 284 283 283 282 280 279 279
234 234 234 234 234 235 235 236 236 237 237 238 239 240 241 242 243 244 245 246 247 248 250 251 252 254 255 257 260 263 265 268 270 270 271 271 271 270 268 267 266 266 266 266 268 270 272 275 277 279 281 281 281 280 279 279 279 279 279 279 279 279 277 276 274 274 275 275 274 274 274 276 278 279 280 281 283 283 283 283 282 282 281 279 277 274 273 273
237 237 237 237 236 236 237 237 238 238 239 239 240 241 242 243 244 245 246 247 249 250 251 252 253 255 256 258 261 263 265 267 268 269 269 269 269 268 267 266 266 266 267 268 270 272 274 276 278 279 280 280 279 279 279 279 279 279 278 277 277 276 274 273 273 275 277 276 274 273 272 274 276 278 279 280 280 280 281 281 280 279 278 276 274 272 270 271
238 238 239 239 239 239 239 239 240 240 241 241 242 243 244 245 246 247 248 249 250 251 252 253 254 255 257 260 263 264 265 266 267 267 267 267 267 267 267 267 267 268 269 270 272 274 275 277 278 279 279 279 279 279 280 279 278 277 276 275 273 271 272 274 275 275 275 273 273 272 271 273 275 276 277 278 278 279 279 278 277 276 274 272 271 270 270 271
238 239 239 240 240 241 241 241 241 242 242 243 244 245 245 247 248 249 249 250 251 252 253 254 256 257 258 260 262 264 265 265 266 266 266 267 267 267 268 268 268 269 270 272 273 274 276 277 278 278 278 279 279 280 280 278 277 276 273 271 269 270 272 273 274 274 272 272 271 271 272 273 274 274 275 276 277 277 277 277 275 273 271 269 267 267 269 271
238 239 240 241 241 242 242 243 242 243 244 244 245 246 247 248 249 250 251 252 253 254 255 256 257 259 260 261 262 263 263 264 264 265 267 267 267 268 268 268 269 270 271 272 273 274 275 276 276 277 278 278 279 279 278 276 274 272 271 271 271 271 271 271 271 272 271 271 271 271 272 273 272 272 273 275 275 276 276 275 273 271 269 267 266 266 267 269
239 239 240 241 242 243 243 244 244 244 244 245 246 247 248 250 251 252 252 253 254 255 256 257 259 260 260 261 262 262 262 263 265 266 267 267 267 267 267 268 269 270 271 272 273 274 274 275 275 276 276 277 278 276 274 272 271 270 271 273 272 270 270 271 272 271 270 270 270 271 272 273 272 271 272 274 275 275 274 272 271 270 269 268 267 267 268 268
239 239 240 241 242 243 244 245 246 246 246 246 247 248 249 250 251 252 253 254 255 256 257 258 259 260 260 260 261 262 263 264 265 266 267 267 267 267 267 268 269 270 271 271 272 273 274 274 274 274 276 277 275 271 269 269 270 271 273 273 272 272 271 272 271 270 269 269 269 271 271 271 271 272 273 274 274 273 272 271 270 269 268 267 267 267 268 268
239 239 240 241 242 243 244 245 246 247 247 248 248 249 249 250 251 252 253 254 255 257 257 257 258 259 260 261 261 262 263 264 265 265 266 266 266 267 268 268 269 270 270 271 272 272 273 273 273 274 276 273 269 267 268 270 272 273 274 274 273 272 272 272 271 270 270 269 269 270 271 271 272 273 274 273 272 271 271 270 269 267 267 266 266 267 267 268
239 240 240 241 242 242 243 245 246 247 248 249 249 250 250 251 252 252 253 254 255 256 257 257 258 259 260 261 261 262 262 263 263 264 264 265 266 267 267 268 269 269 270 271 271 270 271 271 272 274 272 267 266 268 271 272 274 274 274 274 274 273 273 272 270 269 270 270 269 269 271 272 273 273 273 271 269 269 269 268 268 267 267 267 267 267 267 268
240 240 241 242 242 243 244 245 246 247 248 249 250 251 251 252 252 253 253 254 254 255 256 257 258 259 260 261 261 261 261 262 262 263 264 265 265 266 266 267 268 268 268 268 268 268 268 269 271 271 267 266 269 271 272 273 273 273 274 274 274 275 275 272 270 271 271 271 271 270 271 273 273 273 271 269 268 266 266 266 267 267 267 267 268 268 269 270
240 241 242 242 243 244 244 245 246 247 248 249 250 251 251 252 252 253 253 253 253 254 255 256 257 258 259 260 260 260 261 261 262 262 263 264 264 265 266 266 266 266 265 265 266 267 267 268 269 267 267 269 271 271 271 271 272 272 273 273 273 276 276 273 272 272 272 272 273 273 272 271 272 271 270 269 268 266 264 264 265 267 267 268 268 269 270 271
241 241 242 243 244 244 245 246 247 247 249 250 250 251 251 251 252 252 253 253 252 253 254 256 257 257 258 259 260 260 261 261 261 261 262 263 263 264 264 264 264 264 263 264 265 266 266 268 267 267 269 270 270 270 271 272 271 272 272 272 274 276 276 274 272 272 273 273 274 274 272 270 269 269 268 268 267 266 265 265 266 267 268 269 270 270 271 270
242 242 243 244 244 245 245 246 247 248 249 250 251 251 251 251 252 252 253 254 252 251 253 255 256 256 257 258 258 259 259 259 260 261 261 262 262 263 263 263 262 262 263 264 265 266 266 267 267 267 269 269 269 270 270 271 271 271 271 273 275 274 274 274 275 274 273 272 273 273 271 269 268 269 270 270 268 267 266 267 268 269 269 270 271 271 271 270
244 244 244 245 245 246 246 246 247 248 249 250 251 251 252 252 253 253 254 254 252 249 250 252 254 255 255 256 256 257 258 259 260 261 261 262 262 262 262 262 262 263 263 264 264 264 264 265 266 268 269 269 269 269 270 272 272 271 271 273 274 273 273 274 275 275 274 273 272 272 272 270 268 269 271 271 269 268 269 269 270 270 271 272 272 272 271 271
244 244 245 245 246 247 247 248 248 249 249 250 250 251 252 252 253 253 254 255 253 249 249 250 251 253 254 254 256 257 258 259 259 261 261 262 262 263 263 263 263 263 263 263 263 262 263 265 266 267 267 268 269 270 272 273 271 270 271 273 273 273 274 273 273 274 274 274 273 272 273 272 270 270 271 270 269 270 271 271 272 273 274 275 275 275 274 273
244 245 245 246 247 247 248 249 248 249 249 249 248 250 250 251 251 252 253 254 253 251 249 249 249 252 253 254 256 256 258 260 260 260 262 263 263 263 263 263 263 263 262 261 262 262 264 265 265 266 267 268 269 271 272 271 271 271 272 272 272 273 274 274 273 273 273 274 273 273 274 274 272 271 270 269 269 271 272 273 274 275 276 277 277 277 277 276
245 245 245 246 247 247 248 248 248 249 249 248 247 247 248 248 249 250 250 252 253 253 252 250 249 251 253 254 255 256 258 261 260 260 261 262 262 262 262 263 263 262 261 260 261 263 264 263 264 266 267 268 270 271 271 270 270 271 272 272 273 274 274 274 273 273 273 274 273 274 275 275 274 271 269 268 269 270 272 273 274 276 277 278 278 277 276 275
246 246 247 246 246 247 247 248 250 250 250 249 247 245 246 246 247 248 248 250 254 255 255 254 252 251 251 253 255 256 258 259 260 261 261 261 261 262 262 263 263 262 261 261 262 263 263 264 265 266 267 269 271 271 270 270 270 271 271 271 273 274 274 273 273 273 273 273 274 276 276 276 275 271 268 269 270 271 272 273 274 275 276 276 275 274 273 272
248 248 248 248 247 247 248 248 251 252 252 251 248 245 245 245 245 245 246 250 255 256 256 257 255 254 252 253 254 256 257 258 260 260 260 260 261 262 262 262 261 261 261 261 262 263 263 264 264 265 267 269 270 270 271 271 272 271 271 271 272 272 273 273 272 272 272 273 276 277 276 274 274 273 271 271 271 271 272 273 273 274 274 273 272 270 270 271
248 249 249 248 247 248 249 249 251 253 253 253 250 246 245 245 245 244 246 252 256 256 256 257 257 257 255 254 254 255 256 257 258 258 259 260 260 261 261 261 261 262 262 261 262 263 263 263 264 265 267 268 269 271 272 273 273 272 272 272 271 270 270 270 270 270 271 275 277 276 273 272 272 274 275 274 273 274 273 272 273 274 274 273 272 271 271 272
247 251 251 250 248 247 247 248 250 250 251 252 251 248 246 244 244 246 250 254 254 255 257 257 257 257 257 257 256 255 256 257 258 259 260 261 260 260 260 260 260 260 260 260 261 261 262 262 264 264 265 267 269 271 273 274 273 272 271 270 268 267 266 266 268 270 272 275 275 273 271 271 272 275 277 278 278 277 276 276 277 276 276 275 274 273 273 274
243 247 251 250 248 246 246 246 248 248 249 250 250 250 247 242 243 251 255 253 253 255 258 258 258 258 258 258 258 258 258 258 260 261 261 261 260 259 258 258 258 258 260 261 261 261 261 261 262 263 265 267 269 271 272 272 270 268 268 266 264 263 263 266 269 270 271 270 270 270 270 271 274 276 277 279 280 280 280 281 281 280 279 277 276 276 276 276
239 242 248 250 248 246 245 244 247 247 247 248 249 250 247 244 247 254 255 254 255 257 257 258 258 258 258 259 259 260 261 261 261 262 262 261 260 259 258 258 258 258 260 260 259 259 260 260 261 263 265 267 269 270 270 269 267 266 266 265 263 262 264 267 269 268 267 267 267 268 269 273 276 277 277 277 278 280 282 283 283 283 282 281 281 281 280 279
240 241 246 249 247 246 246 245 247 246 246 248 249 249 247 248 251 252 253 255 256 257 258 258 258 258 259 260 261 261 262 262 263 262 262 261 260 259 258 257 257 257 257 258 259 259 260 261 262 264 266 267 267 267 266 265 265 265 264 263 263 263 264 266 266 265 266 267 267 267 269 273 276 276 276 276 277 279 281 282 283 284 284 285 284 283 282 283
245 246 248 249 248 248 247 247 248 247 246 247 248 248 249 251 252 252 253 255 255 256 257 256 257 259 260 261 262 263 263 264 263 262 261 259 258 256 255 255 255 255 256 257 258 259 260 262 263 264 265 265 265 264 263 262 262 261 261 261 262 262 261 262 264 265 267 268 268 269 270 271 272 274 276 278 279 280 281 282 283 283 284 284 283 283 283 284
246 247 248 249 248 247 248 248 249 247 245 245 246 248 251 252 252 253 253 253 253 254 253 253 256 258 259 261 261 262 262 262 261 260 258 256 254 251 251 252 252 253 254 256 257 258 260 262 263 263 263 262 261 260 259 258 257 258 259 261 260 259 259 261 264 266 267 267 268 268 268 269 271 273 276 279 280 281 282 282 282 283 283 282 282 282 283 285
244 245 246 246 246 247 247 246 248 247 244 243 245 247 249 250 250 251 251 250 250 250 250 251 253 254 256 257 257 258 259 259 258 256 254 252 249 246 247 248 249 250 252 255 256 257 259 262 262 262 260 259 257 257 256 255 256 258 260 260 259 260 261 262 264 266 266 267 267 267 268 269 270 274 277 278 279 279 280 280 281 281 281 281 281 282 283 285
242 241 242 242 242 244 245 246 247 246 243 244 245 244 245 247 248 249 249 249 247 246 247 247 248 249 250 251 252 254 255 255 254 253 250 248 246 245 245 246 247 250 252 255 256 257 259 260 261 260 258 256 255 255 255 256 258 259 260 260 260 261 263 263 264 266 266 267 267 267 268 269 271 274 275 275 276 276 277 277 279 280 280 280 281 282 283 284
242 241 240 239 240 241 244 247 247 243 241 244 245 244 243 244 246 247 248 249 248 247 246 245 246 247 245 245 246 248 249 250 250 251 250 248 247 246 245 245 247 251 254 255 255 255 257 257 258 259 258 256 256 257 258 258 258 257 257 258 259 261 263 265 266 266 266 266 268 269 270 271 272 273 274 276 277 278 279 280 281 281 281 282 283 285 287 287
242 243 241 239 241 243 244 245 246 243 241 241 243 243 242 242 244 245 247 248 249 248 247 246 246 245 243 242 243 244 246 248 249 250 251 249 249 248 247 249 251 253 254 254 253 254 257 258 259 259 258 257 257 256 255 255 255 256 257 259 260 263 265 266 266 266 266 267 269 270 270 271 273 276 278 280 281 283 284 284 284 284 284 285 286 288 289 290
241 244 243 241 242 243 242 241 242 243 242 241 242 242 242 242 242 243 244 245 247 247 247 246 246 245 243 242 243 244 246 248 249 251 252 252 252 253 252 252 254 255 255 253 251 252 253 253 253 253 253 253 253 252 253 255 258 260 260 261 264 267 268 267 267 267 266 267 268 268 269 272 276 280 282 284 286 287 287 287 286 285 285 286 288 290 291 291
239 240 240 239 240 239 238 238 239 240 242 243 244 243 242 242 242 242 243 244 246 246 246 246 246 246 245 244 245 246 247 249 250 251 253 253 254 254 254 254 254 255 255 253 251 250 248 249 251 252 251 251 253 254 255 258 259 260 262 266 270 271 269 266 265 265 265 266 267 268 270 275 279 282 285 287 289 289 289 288 287 286 288 290 292 292 293 293
235 234 234 235 236 234 234 237 239 241 243 244 244 244 244 243 242 242 243 244 246 247 248 248 249 248 247 247 247 248 249 250 250 251 252 252 252 253 255 255 255 255 256 255 253 252 250 250 251 252 252 252 253 255 257 260 262 264 268 272 272 269 265 263 263 263 264 266 268 271 275 279 282 285 287 287 287 286 287 286 286 288 291 292 293 293 294 294
234 235 236 238 239 238 237 239 241 242 243 243 243 243 244 244 243 243 244 245 246 247 249 250 251 251 251 250 250 250 250 251 252 252 252 252 253 254 255 255 255 256 256 255 254 252 250 249 250 251 252 254 256 259 263 266 265 264 265 267 266 263 261 261 261 262 266 269 271 275 279 282 284 285 285 284 285 285 285 285 286 289 290 291 292 294 295 295
236 237 239 241 243 244 242 241 241 242 242 242 242 242 243 244 243 243 244 245 245 246 248 249 249 250 251 251 251 251 251 253 254 254 254 254 255 256 256 256 256 256 256 255 254 252 251 251 253 255 256 257 259 261 262 260 258 259 263 266 264 260 259 259 260 265 270 272 274 278 279 280 282 282 281 283 285 285 285 286 288 289 290 292 294 295 295 295
236 237 238 239 242 246 247 244 243 243 243 243 243 243 243 243 243 244 245 245 245 246 247 247 247 247 248 249 250 250 250 252 253 253 253 253 253 255 255 256 257 257 256 255 254 253 254 255 257 257 257 258 259 258 257 256 257 262 266 267 264 260 258 259 263 268 270 271 276 280 278 278 280 280 280 282 283 284 287 288 289 290 291 293 294 293 292 291
237 237 237 238 240 244 248 249 248 247 246 246 246 245 244 244 244 245 246 246 246 246 246 246 246 246 247 247 247 247 247 249 250 250 250 250 250 251 253 255 256 256 256 255 255 255 257 258 259 258 257 255 254 254 255 255 258 262 265 264 262 260 259 261 265 267 268 271 277 280 277 277 280 279 280 283 285 286 286 286 286 288 289 289 288 287 286 285
237 237 237 238 239 241 245 247 249 250 250 249 249 249 247 247 246 246 247 248 247 246 246 245 245 245 245 244 245 245 245 246 247 247 248 248 247 247 249 251 253 254 255 256 256 257 257 257 257 256 252 248 247 250 252 254 258 262 262 261 260 258 258 260 263 267 270 274 278 277 275 276 278 279 281 283 281 279 278 278 280 282 282 282 282 282 282 283
238 237 237 238 239 239 240 243 246 248 248 247 247 248 249 249 249 248 248 249 249 247 246 245 244 242 240 240 241 242 242 243 245 246 247 247 246 246 248 250 252 254 255 256 257 256 253 252 251 248 243 240 243 247 250 253 257 258 258 258 256 254 256 260 265 271 275 276 276 275 276 278 281 281 279 277 274 272 273 276 278 278 279 281 281 281 282 283
238 238 237 237 239 238 238 239 241 244 245 244 244 245 247 249 250 249 249 251 250 249 247 246 244 242 241 240 241 242 242 243 245 247 247 247 248 249 250 252 254 255 256 255 254 250 246 244 242 239 236 235 239 243 246 248 249 250 253 256 255 256 261 266 271 274 276 275 274 274 277 281 282 278 275 274 274 274 276 277 278 279 280 281 281 282 282 281
237 238 237 237 238 238 238 237 238 240 242 243 244 244 244 246 247 248 249 248 247 247 247 246 246 245 243 243 243 244 245 245 247 248 248 249 251 250 250 250 251 252 250 246 244 242 240 240 239 238 239 240 242 246 249 250 248 248 253 257 258 262 268 271 273 275 274 273 273 275 278 280 278 276 275 275 276 276 278 279 280 281 282 282 282 282 281 280
Height
5857 5858 5860 5861 5862 5863 5865 5866 5867 5868 5869 5870 5871 5872 5873 5874 5875 5876 5877 5878 5878 5879 5880 5880 5881 5881 5882 5882 5883 5883 5883 5884 5884 5885 5885 5886 5886 5887 5887 5887 5887 5887 5888 5888 5888 5888 5888 5888 5888 5888 5888 5888 5888 5888 5888 5887 5887 5887 5887 5886 5886 5886 5885 5884 5884 5883 5882 5882 5881 5881 5880 5880 5879 5878 5878 5878 5879 5880 5880 5879 5880 5879 5878 5877 5877 5876 5876 5875
5854 5856 5857 5859 5860 5862 5863 5864 5865 5866 5867 5869 5870 5871 5872 5873 5873 5874 5875 5876 5877 5878 5878 5879 5879 5880 5880 5881 5881 5881 5882 5882 5883 5884 5884 5884 5885 5885 5885 5886 5886 5886 5886 5887 5887 5887 5887 5887 5887 5887 5887 5887 5887 5886 5886 5886 5886 5885 5885 5885 5885 5884 5883 5883 5882 5881 5880 5879 5879 5879 5878 5878 5878 5877 5877 5876 5877 5878 5878 5877 5878 5878 5877 5876 5876 5875 5875 5874
5852 5853 5855 5857 5858 5859 5861 5862 5863 5864 5865 5867 5868 5869 5870 5871 5872 5872 5873 5874 5875 5876 5876 5877 5878 5878 5879 5879 5879 5880 5880 5881 5881 5882 5882 5883 5883 5884 5884 5884 5884 5885 5885 5885 5885 5885 5885 5885 5885 5885 5885 5885 5885 5885 5884 5884 5884 5884 5883 5883 5883 5882 5881 5881 5880 5879 5878 5878 5877 5876 5876 5876 5876 5876 5876 5875 5875 5876 5875 5875 5876 5877 5876 5875 5874 5874 5873 5872
5849 5850 5852 5854 5855 5857 5858 5859 5861 5862 5863 5864 5866 5867 5868 5869 5869 5870 5871 5872 5873 5874 5874 5875 5876 5876 5877 5877 5878 5878 5878 5879 5880 5880 5881 5881 5882 5882 5882 5883 5883 5883 5883 5883 5883 5884 5884 5884 5884 5884 5883 5883 5883 5883 5883 5882 5882 5882 5881 5881 5881 5880 5879 5879 5878 5877 5876 5876 5875 5874 5874 5874 5874 5874 5874 5874 5873 5874 5873 5873 5874 5874 5874 5874 5873 5872 5871 5871
5846 5848 5849 5851 5852 5854 5855 5857 5858 5859 5861 5862 5863 5864 5865 5866 5867 5868 5869 5870 5870 5871 5872 5873 5873 5874 5875 5875 5876 5876 5876 5877 5878 5878 5879 5879 5880 5880 5880 5881 5881 5881 5881 5881 5882 5882 5882 5882 5882 5882 5882 5882 5881 5881 5881 5880 5880 5880 5879 5879 5878 5878 5877 5876 5876 5875 5874 5874 5873 5872 5872 5872 5872 5873 5873 5872 5872 5872 5871 5871 5871 5871 5871 5871 5871 5871 5870 5869
5843 5844 5846 5848 5849 5851 5852 5854 5855 5856 5858 5859 5860 5861 5863 5864 5865 5865 5866 5867 5868 5868 5869 5870 5871 5872 5872 5873 5874 5874 5874 5875 5876 5877 5877 5877 5878 5878 5878 5879 5879 5879 5879 5879 5880 5880 5880 5880 5880 5880 5880 5880 5879 5879 5878 5878 5878 5877 5877 5877 5876 5876 5875 5875 5874 5873 5872 5872 5871 5870 5870 5870 5871 5871 5871 5871 5871 5870 5870 5869 5869 5868 5868 5868 5868 5868 5868 5868
5839 5841 5843 5844 5846 5847 5849 5850 5852 5853 5855 5856 5857 5858 5860 5861 5862 5863 5863 5864 5865 5866 5867 5867 5868 5869 5870 5871 5871 5872 5872 5872 5874 5874 5874 5875 5875 5876 5876 5876 5877 5877 5877 5877 5877 5878 5878 5878 5878 5878 5877 5877 5877 5877 5876 5876 5875 5875 5875 5874 5874 5873 5873 5873 5872 5872 5871 5870 5869 5868 5868 5868 5869 5869 5869 5869 5869 5869 5868 5867 5867 5866 5866 5865 5865 5865 5865 5865
5836 5838 5839 5841 5842 5844 5845 5847 5849 5850 5851 5853 5854 5855 5856 5857 5859 5859 5860 5861 5862 5863 5864 5865 5866 5867 5867 5868 5869 5869 5869 5870 5872 5872 5872 5872 5873 5873 5874 5874 5874 5875 5875 5875 5875 5875 5875 5875 5875 5875 5875 5875 5875 5874 5874 5874 5873 5873 5872 5872 5871 5871 5871 5871 5870 5870 5869 5868 5868 5867 5866 5866 5866 5866 5866 5866 5867 5867 5866 5866 5865 5864 5863 5863 5862 5862 5862 5862
5833 5834 5836 5837 5839 5840 5842 5843 5845 5846 5848 5849 5850 5852 5853 5854 5855 5856 5857 5858 5859 5860 5861 5862 5863 5864 5865 5865 5866 5867 5866 5867 5869 5870 5870 5870 5870 5871 5871 5871 5872 5872 5872 5872 5872 5872 5873 5873 5873 5873 5873 5873 5872 5872 5872 5871 5871 5870 5870 5869 5868 5868 5868 5868 5868 5868 5867 5866 5866 5865 5864 5864 5864 5863 5863 5863 5863 5864 5864 5863 5862 5862 5861 5860 5860 5859 5859 5859
5829 5830 5832 5834 5835 5837 5838 5840 5841 5843 5844 5846 5847 5848 5849 5851 5852 5853 5854 5855 5856 5857 5858 5859 5860 5861 5862 5863 5864 5864 5863 5864 5866 5867 5867 5867 5867 5868 5868 5869 5869 5869 5869 5869 5870 5870 5870 5870 5870 5870 5870 5870 5869 5869 5869 5869 5868 5868 5867 5866 5865 5865 5864 5864 5865 5864 5864 5864 5864 5863 5862 5861 5861 5861 5861 5860 5860 5860 5860 5860 5860 5859 5859 5858 5857 5857 5856 5856
5825 5826 5828 5830 5831 5833 5834 5836 5837 5839 5840 5842 5843 5845 5846 5847 5848 5849 5851 5852 5853 5854 5855 5856 5857 5858 5859 5860 5861 5861 5861 5861 5863 5864 5864 5864 5865 5865 5865 5866 5866 5866 5866 5867 5867 5867 5867 5867 5867 5867 5867 5867 5866 5866 5866 5866 5865 5865 5865 5864 5863 5862 5862 5861 5861 5860 5861 5862 5861 5861 5859 5858 5858 5858 5858 5857 5857 5857 5857 5857 5857 5856 5856 5856 5855 5854 5854 5853
5821 5823 5824 5826 5827 5829 5830 5832 5833 5835 5836 5838 5839 5841 5842 5843 5845 5846 5847 5848 5849 5850 5851 5852 5853 5854 5855 5857 5858 5858 5858 5858 5859 5860 5861 5861 5862 5862 5862 5863 5863 5863 5863 5863 5864 5864 5864 5864 5864 5863 5864 5864 5863 5863 5863 5863 5862 5862 5862 5861 5860 5860 5859 5858 5857 5857 5858 5858 5858 5858 5857 5856 5855 5854 5854 5854 5854 5854 5854 5854 5854 5853 5853 5853 5852 5852 5851 5851
5816 5818 5820 5822 5823 5825 5826 5828 5829 5831 5832 5834 5835 5837 5838 5840 5841 5842 5843 5845 5846 5847 5848 5849 5850 5851 5852 5853 5854 5855 5855 5855 5856 5857 5857 5858 5858 5859 5859 5859 5860 5860 5860 5860 5860 5860 5860 5860 5860 5860 5860 5860 5860 5859 5859 5860 5859 5859 5858 5858 5858 5857 5856 5855 5855 5855 5855 5855 5855 5855 5854 5853 5852 5851 5852 5851 5851 5851 5851 5850 5850 5850 5850 5849 5849 5849 5849 5848
5811 5814 5816 5817 5819 5820 5822 5823 5825 5827 5828 5830 5831 5833 5834 5836 5837 5838 5840 5841 5842 5843 5844 5845 5846 5847 5848 5850 5851 5851 5852 5852 5852 5853 5853 5854 5855 5855 5856 5856 5856 5856 5857 5857 5857 5857 5857 5856 5856 5857 5857 5856 5856 5856 5856 5856 5855 5855 5855 5855 5855 5854 5853 5853 5852 5852 5852 5851 5851 5851 5851 5851 5850 5849 5848 5848 5848 5848 5847 5847 5847 5847 5846 5846 5846 5846 5845 5845
5806 5809 5811 5812 5814 5816 5817 5819 5820 5822 5824 5825 5827 5829 5830 5831 5833 5834 5835 5837 5838 5839 5840 5841 5842 5843 5845 5846 5847 5847 5848 5848 5848 5849 5849 5850 5851 5852 5852 5852 5852 5853 5853 5853 5853 5853 5853 5853 5853 5853 5853 5853 5853 5852 5852 5852 5851 5851 5851 5851 5852 5852 5851 5850 5849 5849 5848 5848 5848 5847 5848 5848 5847 5846 5845 5845 5845 5845 5844 5844 5844 5843 5843 5843 5843 5842 5842 5842
5801 5803 5806 5807 5809 5811 5812 5814 5816 5817 5819 5821 5822 5824 5826 5827 5828 5830 5831 5832 5833 5835 5836 5837 5838 5839 5841 5843 5843 5844 5844 5844 5844 5844 5845 5846 5847 5847 5848 5848 5848 5848 5849 5849 5849 5849 5849 5849 5849 5849 5849 5849 5849 5849 5848 5847 5848 5847 5847 5848 5849 5849 5849 5848 5846 5846 5844 5844 5844 5844 5844 5845 5844 5843 5842 5842 5842 5842 5841 5841 5840 5840 5840 5839 5839 5839 5839 5839
5796 5798 5800 5802 5804 5806 5807 5809 5811 5812 5814 5816 5818 5819 5821 5822 5824 5825 5826 5828 5829 5830 5831 5832 5834 5835 5836 5838 5839 5839 5839 5839 5840 5841 5841 5842 5842 5843 5843 5844 5844 5844 5845 5845 5845 5845 5845 5845 5845 5845 5846 5846 5846 5845 5843 5843 5844 5843 5844 5845 5846 5846 5846 5845 5843 5842 5841 5840 5840 5841 5841 5841 5841 5840 5839 5839 5839 5839 5838 5837 5837 5837 5836 5836 5836 5836 5836 5836
5791 5793 5795 5797 5799 5801 5803 5804 5806 5807 5809 5811 5813 5814 5815 5817 5818 5819 5821 5822 5824 5825 5826 5828 5830 5830 5831 5833 5834 5834 5835 5835 5836 5836 5837 5837 5838 5838 5839 5839 5840 5840 5840 5840 5841 5841 5841 5841 5841 5841 5842 5843 5842 5840 5839 5840 5840 5840 5841 5841 5842 5842 5842 5842 5840 5838 5837 5837 5837 5837 5838 5838 5837 5837 5837 5837 5836 5835 5834 5834 5834 5833 5833 5833 5833 5833 5833 5833
5785 5787 5789 5791 5793 5795 5797 5799 5800 5803 5805 5806 5807 5809 5810 5811 5812 5814 5815 5817 5819 5820 5821 5823 5824 5824 5826 5828 5829 5830 5831 5831 5832 5832 5832 5833 5833 5834 5834 5835 5835 5836 5836 5836 5836 5836 5836 5836 5837 5838 5839 5838 5837 5836 5836 5836 5837 5837 5837 5837 5838 5838 5838 5839 5836 5834 5833 5833 5834 5834 5834 5835 5834 5833 5834 5834 5833 5832 5831 5831 5830 5830 5830 5829 5829 5829 5829 5829
5780 5782 5784 5786 5788 5790 5792 5794 5796 5798 5799 5801 5802 5804 5804 5805 5806 5808 5810 5812 5814 5815 5815 5817 5818 5819 5821 5823 5824 5825 5826 5826 5827 5827 5827 5828 5829 5829 5829 5830 5831 5831 5832 5832 5831 5832 5832 5832 5833 5835 5834 5833 5832 5833 5833 5833 5833 5833 5833 5833 5833 5833 5835 5835 5832 5830 5829 5828 5830 5831 5830 5831 5830 5830 5830 5830 5829 5829 5828 5827 5827 5827 5826 5827 5826 5826 5826 5826
5774 5776 5778 5780 5782 5784 5786 5788 5790 5793 5794 5795 5797 5798 5798 5800 5800 5802 5804 5806 5808 5809 5810 5811 5813 5814 5815 5817 5819 5820 5820 5821 5822 5822 5823 5824 5824 5824 5825 5826 5826 5826 5827 5827 5826 5827 5828 5828 5831 5831 5829 5828 5829 5829 5829 5829 5829 5829 5829 5828 5828 5829 5830 5830 5828 5827 5826 5824 5826 5827 5826 5827 5826 5826 5826 5826 5826 5826 5825 5824 5824 5824 5824 5824 5824 5823 5824 5823
5768 5770 5773 5774 5777 5779 5781 5783 5785 5787 5789 5790 5791 5792 5792 5793 5794 5796 5798 5799 5801 5803 5804 5806 5807 5809 5810 5811 5813 5814 5815 5816 5817 5817 5818 5819 5819 5819 5820 5821 5821 5822 5822 5822 5822 5823 5823 5825 5827 5825 5824 5825 5826 5825 5825 5825 5825 5825 5825 5824 5824 5825 5825 5824 5823 5823 5822 5821 5821 5822 5822 5822 5822 5822 5822 5822 5823 5822 5822 5821 5821 5821 5821 5821 5821 5821 5820 5820
5762 5765 5767 5769 5771 5773 5775 5777 5779 5782 5784 5784 5786 5786 5785 5787 5789 5790 5791 5792 5795 5798 5798 5800 5802 5803 5805 5806 5807 5808 5809 5811 5811 5812 5813 5814 5814 5815 5816 5817 5817 5817 5817 5818 5819 5818 5819 5821 5822 5820 5820 5821 5821 5821 5821 5821 5821 5821 5820 5820 5820 5822 5820 5818 5819 5819 5818 5817 5817 5817 5817 5818 5818 5818 5819 5819 5819 5819 5818 5818 5818 5818 5817 5817 5817 5817 5817 5817
5756 5759 5760 5763 5765 5767 5770 5771 5774 5777 5778 5779 5780 5778 5778 5781 5783 5784 5784 5784 5787 5792 5794 5795 5796 5797 5799 5801 5802 5802 5803 5805 5806 5807 5809 5809 5810 5811 5811 5813 5812 5812 5813 5814 5814 5814 5815 5816 5816 5816 5817 5817 5816 5817 5817 5816 5816 5816 5816 5816 5816 5817 5815 5814 5813 5814 5813 5813 5813 5812 5811 5814 5815 5814 5815 5815 5815 5814 5814 5814 5814 5814 5814 5814 5814 5814 5814 5813
5750 5752 5755 5757 5758 5761 5763 5765 5770 5772 5772 5774 5774 5771 5772 5775 5776 5778 5779 5777 5779 5785 5789 5790 5790 5792 5795 5795 5796 5797 5798 5800 5802 5803 5804 5805 5805 5806 5807 5808 5808 5808 5810 5810 5809 5809 5810 5812 5812 5812 5812 5812 5812 5812 5813 5812 5811 5811 5812 5813 5812 5811 5811 5810 5809 5808 5808 5808 5810 5808 5806 5809 5811 5810 5810 5811 5810 5810 5810 5810 5810 5810 5810 5810 5810 5810 5810 5810
5743 5746 5748 5750 5752 5755 5756 5760 5765 5765 5766 5770 5767 5765 5767 5769 5770 5772 5773 5770 5771 5778 5783 5785 5786 5786 5789 5789 5791 5793 5792 5794 5798 5799 5799 5800 5801 5802 5802 5803 5803 5804 5805 5805 5804 5804 5806 5808 5808 5807 5807 5807 5807 5808 5809 5808 5806 5805 5808 5809 5807 5807 5807 5806 5805 5804 5803 5803 5805 5804 5803 5804 5806 5807 5807 5806 5806 5806 5806 5806 5806 5806 5805 5805 5806 5805 5805 5805
5737 5739 5741 5743 5746 5748 5750 5755 5758 5758 5761 5762 5759 5759 5761 5762 5763 5766 5767 5763 5764 5772 5777 5779 5780 5781 5783 5785 5787 5787 5786 5790 5794 5794 5795 5796 5796 5797 5797 5797 5799 5799 5800 5800 5798 5799 5802 5803 5802 5802 5802 5802 5803 5804 5805 5803 5801 5801 5803 5804 5802 5802 5802 5801 5800 5799 5798 5798 5799 5800 5800 5799 5800 5803 5803 5802 5802 5802 5802 5801 5801 5801 5801 5801 5801 5801 5801 5801
5731 5733 5735 5737 5739 5741 5745 5748 5750 5753 5754 5751 5750 5752 5753 5755 5756 5759 5759 5755 5758 5766 5769 5771 5775 5777 5778 5779 5780 5781 5781 5785 5788 5789 5790 5791 5791 5792 5792 5793 5794 5794 5795 5794 5793 5795 5797 5797 5797 5798 5797 5798 5799 5800 5799 5798 5796 5797 5798 5798 5798 5798 5797 5796 5795 5794 5794 5793 5793 5796 5797 5794 5795 5797 5797 5797 5798 5798 5797 5797 5797 5797 5797 5797 5797 5797 5797 5797
5724 5726 5729 5731 5733 5735 5738 5741 5745 5747 5746 5743 5743 5743 5744 5746 5748 5751 5750 5748 5755 5761 5760 5763 5769 5771 5772 5773 5774 5776 5778 5780 5781 5783 5785 5785 5785 5786 5787 5788 5789 5788 5789 5788 5788 5790 5791 5792 5792 5792 5792 5793 5794 5794 5793 5793 5792 5792 5793 5793 5793 5793 5792 5791 5790 5790 5789 5787 5788 5792 5793 5790 5788 5790 5792 5793 5793 5794 5793 5793 5793 5793 5793 5793 5793 5793 5793 5793
5717 5720 5722 5723 5726 5729 5732 5736 5739 5740 5737 5735 5735 5736 5736 5736 5740 5741 5739 5743 5753 5754 5752 5755 5760 5764 5766 5768 5769 5771 5773 5775 5776 5778 5778 5779 5780 5781 5782 5783 5782 5782 5783 5783 5783 5784 5785 5786 5786 5786 5787 5788 5788 5788 5788 5788 5787 5787 5787 5787 5788 5787 5786 5786 5785 5785 5783 5782 5785 5788 5787 5785 5782 5783 5787 5788 5788 5789 5789 5789 5789 5789 5789 5789 5789 5789 5789 5790
5711 5713 5714 5716 5719 5723 5726 5729 5732 5732 5728 5726 5727 5727 5728 5729 5731 5730 5731 5742 5749 5744 5744 5748 5752 5755 5758 5761 5764 5766 5767 5768 5770 5771 5772 5773 5774 5775 5776 5777 5777 5777 5776 5777 5778 5779 5780 5780 5780 5781 5781 5782 5782 5782 5782 5782 5782 5782 5782 5782 5782 5781 5780 5780 5779 5779 5777 5778 5782 5782 5781 5780 5777 5778 5781 5782 5783 5784 5784 5784 5784 5784 5784 5784 5784 5784 5785 5785
5705 5707 5707 5709 5712 5716 5719 5722 5724 5723 5720 5719 5719 5718 5721 5722 5719 5721 5731 5741 5739 5734 5739 5742 5742 5746 5749 5752 5757 5759 5761 5762 5764 5765 5766 5767 5768 5769 5771 5771 5771 5771 5769 5771 5773 5773 5773 5773 5774 5774 5775 5776 5776 5777 5777 5777 5777 5776 5776 5776 5775 5774 5774 5773 5773 5774 5774 5774 5775 5776 5775 5774 5773 5775 5776 5775 5777 5778 5778 5779 5779 5780 5780 5780 5780 5780 5781 5781
5699 5701 5700 5701 5705 5708 5712 5715 5715 5713 5713 5712 5710 5710 5713 5709 5709 5720 5730 5731 5728 5729 5735 5735 5735 5738 5741 5744 5748 5751 5754 5755 5757 5759 5760 5761 5761 5762 5764 5764 5765 5765 5764 5766 5766 5766 5766 5766 5767 5768 5769 5771 5771 5770 5771 5771 5770 5769 5769 5770 5769 5768 5767 5768 5769 5769 5769 5769 5769 5769 5768 5768 5769 5772 5772 5771 5772 5771 5772 5773 5774 5775 5775 5775 5775 5775 5775 5775
5692 5693 5693 5695 5698 5700 5704 5707 5706 5706 5706 5704 5702 5702 5700 5697 5707 5720 5721 5720 5723 5725 5728 5729 5728 5730 5733 5736 5740 5743 5746 5748 5750 5752 5752 5753 5754 5755 5757 5758 5759 5760 5759 5759 5759 5759 5759 5759 5761 5763 5763 5764 5764 5764 5764 5764 5763 5763 5764 5763 5762 5763 5763 5764 5764 5764 5763 5764 5764 5763 5763 5763 5765 5767 5768 5768 5767 5767 5767 5767 5768 5769 5769 5769 5769 5769 5769 5768
5684 5686 5688 5689 5690 5693 5697 5699 5699 5699 5698 5695 5694 5691 5688 5694 5708 5713 5711 5715 5718 5718 5722 5723 5721 5723 5726 5729 5733 5735 5737 5740 5742 5743 5744 5745 5746 5748 5750 5751 5752 5753 5753 5753 5752 5753 5753 5753 5756 5757 5757 5757 5757 5757 5758 5757 5756 5757 5758 5757 5758 5760 5760 5759 5759 5758 5758 5758 5758 5758 5759 5759 5761 5761 5762 5762 5763 5763 5763 5762 5763 5763 5763 5763 5763 5762 5762 5762
5676 5678 5680 5681 5684 5689 5691 5691 5692 5692 5689 5687 5683 5679 5685 5697 5703 5704 5707 5712 5712 5713 5717 5716 5715 5717 5719 5722 5725 5727 5729 5731 5733 5735 5736 5737 5738 5740 5742 5744 5745 5746 5747 5747 5747 5747 5747 5747 5749 5749 5750 5751 5750 5751 5751 5750 5751 5752 5751 5752 5755 5756 5755 5754 5753 5753 5754 5752 5752 5754 5755 5755 5756 5756 5756 5757 5757 5758 5758 5757 5757 5757 5757 5757 5756 5756 5756 5755
5669 5671 5672 5674 5680 5683 5684 5684 5684 5682 5681 5677 5671 5674 5686 5695 5695 5697 5702 5704 5706 5709 5710 5708 5710 5713 5713 5715 5717 5719 5720 5722 5724 5726 5727 5729 5730 5733 5735 5737 5738 5739 5741 5741 5741 5741 5741 5740 5742 5743 5743 5744 5744 5744 5745 5745 5745 5746 5747 5749 5751 5750 5749 5749 5748 5748 5748 5747 5747 5749 5750 5750 5751 5750 5751 5752 5751 5752 5752 5752 5752 5752 5752 5751 5751 5750 5750 5750
5663 5665 5665 5669 5675 5677 5678 5678 5675 5674 5672 5666 5663 5673 5684 5686 5687 5691 5693 5695 5699 5700 5701 5702 5705 5706 5707 5708 5709 5711 5712 5713 5715 5717 5720 5722 5723 5726 5729 5730 5732 5733 5735 5735 5734 5735 5735 5734 5736 5737 5737 5738 5738 5738 5738 5739 5740 5741 5743 5745 5744 5743 5744 5744 5744 5743 5743 5743 5743 5744 5744 5745 5746 5746 5747 5747 5746 5746 5746 5746 5746 5746 5746 5746 5745 5745 5745 5744
5656 5656 5658 5664 5668 5669 5670 5669 5667 5665 5660 5654 5658 5671 5678 5677 5681 5684 5684 5687 5691 5690 5692 5697 5699 5699 5700 5702 5703 5704 5705 5706 5708 5710 5712 5715 5717 5721 5724 5724 5725 5727 5728 5728 5728 5729 5730 5729 5729 5730 5731 5732 5732 5732 5733 5735 5737 5738 5738 5738 5738 5738 5738 5739 5739 5739 5738 5738 5738 5738 5738 5739 5741 5741 5742 5741 5741 5741 5740 5741 5741 5741 5741 5740 5739 5739 5739 5738
5648 5648 5652 5659 5660 5661 5663 5660 5657 5653 5649 5649 5656 5666 5670 5670 5674 5676 5677 5680 5682 5682 5686 5691 5692 5692 5694 5696 5697 5698 5698 5699 5701 5703 5705 5709 5711 5715 5717 5718 5720 5721 5722 5722 5722 5722 5723 5722 5723 5724 5725 5726 5726 5728 5730 5732 5732 5732 5732 5732 5732 5733 5733 5733 5734 5734 5734 5733 5733 5733 5732 5732 5733 5735 5735 5735 5734 5735 5735 5736 5736 5735 5735 5734 5733 5732 5732 5730
5640 5639 5644 5652 5652 5653 5654 5648 5645 5644 5643 5646 5653 5660 5662 5663 5665 5668 5670 5673 5674 5676 5680 5683 5684 5686 5688 5690 5691 5692 5693 5693 5695 5696 5698 5702 5705 5708 5711 5712 5714 5715 5716 5715 5716 5717 5718 5718 5719 5719 5719 5721 5723 5725 5726 5725 5725 5725 5726 5726 5727 5728 5728 5728 5728 5728 5729 5729 5729 5728 5726 5725 5726 5727 5728 5728 5727 5728 5729 5729 5729 5728 5727 5727 5726 5725 5725 5723
5633 5631 5637 5644 5644 5646 5644 5637 5637 5639 5639 5644 5651 5653 5653 5655 5659 5661 5663 5666 5669 5670 5673 5675 5677 5679 5681 5683 5685 5686 5687 5687 5689 5690 5692 5695 5698 5701 5704 5705 5706 5708 5709 5709 5710 5712 5712 5711 5712 5712 5714 5715 5717 5718 5718 5718 5719 5719 5719 5721 5722 5722 5722 5722 5722 5723 5724 5724 5724 5722 5720 5720 5721 5720 5720 5720 5720 5721 5722 5722 5721 5720 5719 5719 5719 5718 5717 5717
5625 5627 5631 5633 5635 5637 5633 5628 5630 5632 5635 5643 5646 5644 5645 5649 5652 5653 5655 5659 5661 5663 5665 5667 5670 5672 5674 5677 5678 5679 5681 5681 5683 5685 5687 5689 5692 5694 5696 5697 5699 5700 5701 5702 5704 5705 5705 5705 5705 5706 5708 5709 5710 5711 5711 5711 5711 5712 5714 5717 5717 5716 5716 5716 5716 5716 5716 5717 5717 5716 5715 5716 5716 5715 5713 5714 5714 5713 5713 5713 5711 5710 5710 5710 5710 5709 5708 5708
5618 5621 5623 5624 5626 5627 5622 5619 5623 5627 5633 5637 5636 5636 5640 5642 5644 5646 5649 5651 5653 5655 5658 5660 5663 5665 5667 5669 5670 5672 5674 5675 5677 5680 5681 5682 5685 5687 5689 5690 5691 5693 5694 5696 5698 5699 5699 5699 5700 5700 5701 5702 5702 5703 5703 5704 5706 5708 5710 5711 5710 5710 5710 5709 5710 5709 5710 5712 5711 5709 5710 5710 5710 5709 5707 5708 5708 5707 5706 5705 5703 5702 5702 5702 5700 5699 5698 5698
5610 5612 5614 5615 5616 5616 5613 5614 5619 5623 5626 5628 5628 5632 5634 5634 5639 5643 5643 5644 5646 5649 5651 5653 5656 5658 5659 5661 5663 5665 5666 5667 5670 5673 5674 5675 5678 5680 5682 5683 5685 5686 5688 5689 5691 5691 5691 5692 5693 5692 5693 5694 5695 5697 5699 5702 5703 5702 5702 5702 5702 5703 5703 5702 5703 5702 5703 5706 5705 5704 5704 5704 5704 5703 5700 5700 5701 5700 5698 5697 5697 5696 5695 5693 5692 5691 5690 5689
5600 5601 5604 5608 5608 5606 5607 5610 5613 5615 5619 5621 5622 5625 5626 5628 5634 5636 5634 5637 5640 5642 5644 5646 5649 5650 5651 5653 5656 5657 5659 5660 5662 5664 5666 5669 5671 5673 5675 5677 5678 5679 5681 5682 5683 5682 5682 5684 5685 5685 5687 5688 5690 5692 5695 5695 5694 5693 5695 5696 5696 5696 5696 5696 5696 5696 5697 5698 5699 5699 5698 5697 5699 5695 5692 5695 5694 5692 5691 5690 5690 5689 5686 5684 5684 5683 5682 5681
5590 5592 5597 5601 5601 5598 5599 5604 5607 5610 5614 5616 5615 5618 5621 5624 5627 5627 5628 5631 5633 5636 5638 5638 5640 5642 5644 5648 5649 5650 5652 5654 5654 5657 5659 5662 5664 5665 5667 5669 5670 5672 5673 5674 5674 5674 5674 5675 5678 5679 5680 5682 5683 5685 5686 5686 5686 5687 5689 5689 5690 5689 5689 5688 5689 5691 5691 5689 5692 5695 5690 5690 5693 5689 5685 5689 5689 5685 5684 5683 5681 5679 5677 5677 5677 5675 5675 5674
5581 5585 5590 5594 5593 5592 5594 5598 5602 5604 5607 5608 5607 5611 5615 5617 5619 5621 5623 5625 5627 5629 5629 5629 5632 5636 5639 5642 5642 5642 5645 5646 5647 5650 5652 5654 5657 5658 5660 5661 5662 5664 5665 5665 5665 5666 5666 5667 5671 5672 5670 5672 5674 5675 5677 5678 5678 5680 5681 5683 5683 5682 5680 5681 5683 5684 5683 5681 5685 5688 5683 5683 5687 5683 5679 5681 5681 5678 5677 5675 5673 5672 5672 5671 5670 5668 5667 5667
5572 5578 5583 5585 5586 5588 5590 5594 5595 5596 5598 5600 5601 5604 5608 5611 5613 5616 5617 5618 5619 5621 5621 5622 5627 5631 5632 5634 5634 5634 5637 5639 5640 5643 5646 5647 5649 5651 5652 5654 5655 5656 5658 5657 5658 5659 5659 5660 5663 5663 5662 5662 5664 5666 5668 5669 5670 5672 5675 5676 5676 5674 5673 5674 5676 5676 5676 5676 5678 5678 5675 5677 5680 5676 5673 5674 5673 5671 5669 5668 5668 5668 5666 5665 5663 5661 5660 5660
5565 5570 5574 5577 5579 5582 5585 5587 5588 5588 5590 5593 5594 5598 5602 5605 5607 5609 5609 5610 5612 5614 5615 5616 5620 5623 5624 5625 5626 5627 5630 5632 5633 5637 5639 5640 5641 5644 5645 5646 5648 5650 5650 5651 5651 5651 5652 5652 5654 5656 5655 5654 5655 5657 5659 5660 5661 5663 5667 5670 5668 5665 5664 5667 5670 5671 5669 5668 5669 5667 5666 5670 5672 5669 5667 5666 5664 5663 5662 5662 5662 5661 5659 5657 5655 5654 5653 5653
5557 5561 5566 5569 5570 5574 5578 5580 5582 5582 5583 5585 5588 5592 5595 5598 5601 5602 5603 5604 5605 5608 5609 5610 5613 5616 5616 5618 5620 5621 5623 5626 5627 5630 5632 5633 5634 5637 5638 5638 5641 5642 5643 5644 5644 5644 5645 5645 5648 5649 5647 5647 5650 5650 5650 5653 5653 5654 5661 5663 5658 5656 5659 5662 5665 5664 5660 5659 5660 5657 5657 5663 5664 5661 5658 5657 5655 5655 5655 5654 5653 5651 5650 5649 5647 5647 5646 5645
5549 5552 5557 5560 5561 5565 5569 5572 5575 5575 5576 5579 5583 5585 5588 5591 5594 5595 5596 5597 5599 5601 5602 5604 5606 5608 5609 5612 5614 5615 5616 5619 5620 5622 5624 5625 5627 5629 5630 5631 5633 5635 5636 5637 5637 5638 5639 5639 5641 5642 5640 5641 5643 5642 5644 5645 5642 5646 5655 5657 5653 5653 5655 5654 5654 5654 5652 5651 5651 5649 5651 5655 5655 5651 5649 5648 5647 5647 5646 5645 5644 5642 5641 5640 5640 5639 5638 5636